Location: Campestrin
(46.4667°N, 11.7167°E)
Time: 16:19:33
(UTC+00:00)

Lacrosse 5 rocket - Pass Details

Date: 18 April 2021
Orbit: 461 x 634 km, 57.0° (Epoch: 07 May)

Event Time Altitude Azimuth Distance (km) Brightness Sun altitude
Rises 22:45:32 0° 309° (NW) 2,798 5.5 -32.1°
Reaches altitude 10° 22:47:50 10° 316° (NW) 1,924 4.7 -32.1°
Enters shadow 22:49:53 25° 331° (NNW) 1,224 3.6 -32.1°
